Montgomery, AL

6:48 AM CST on February 23, 2018 (GMT -0600)
Montgomery Regional

Weather History for KMGM - February, 2013

Change the Weather History Date:

Thursday, February 28, 2013

  Actual Average Record
Temperature  
Mean Temperature 48 °F 54 °F  
Max Temperature 56 °F 65 °F 83 °F (1948)
Min Temperature 40 °F 42 °F 17 °F (2002)
Degree Days  
Heating Degree Days 17 12  
Month to date heating degree days 389 410  
Since 1 July heating degree days 1478 1872  
Moisture  
Dew Point 31 °F    
Average Humidity 54    
Maximum Humidity 73    
Minimum Humidity 35    
Precipitation  
Precipitation 0.00 in 0.19 in 1.66 in (1916)
Month to date precipitation 13.36 5.28  
Year to date precipitation 16.77 9.93  
Snow  
Snow 0.00 in 0.00 in - ()
Month to date snowfall 0.0 0.0  
Since 1 July snowfall 0.0 0.1  
Snow Depth 0.00 in    
Sea Level Pressure  
Sea Level Pressure 30.02 in    
Wind  
Wind Speed 9 mph (WNW)    
Max Wind Speed 18 mph    
Max Gust Speed 24 mph    
Visibility 10 miles    
Events      
T = Trace of Precipitation, MM = Missing Value Source: NWS Daily Summary

Daily Weather History Graph

Daily Weather History Graph

Search for Another Location

Airport or City:

Trip Planner

Search our weather history database for the weather conditions in past years. The results will help you decide how hot, cold, wet, or windy it might be!

Date:

Astronomy

Feb. 28, 2013 Rise Set
Actual Time 6:13 AM CST 5:42 PM CST
Civil Twilight 5:49 AM CST 6:07 PM CST
Nautical Twilight 5:20 AM CST 6:35 PM CST
Astronomical Twilight 4:52 AM CST 7:04 PM CST
Moon 8:53 PM CST (2/28) 7:36 AM CST (2/28)
Length of Visible Light 12h 17m
Length of Day
11h 28m
Waning Gibbous, 90% of the Moon is Illuminated
Feb 28
Waning Gibbous
Mar 4
Last Quarter
Mar 11
New
Mar 19
First Quarter
Mar 27
Full

Hourly Weather History & Observations

Time (CST) Temp. Windchill Dew Point Humidity Pressure Visibility Wind Dir Wind Speed Gust Speed Precip Events Conditions
12:53 AM 46.4 °F 43.5 °F 35.6 °F 66% 29.98 in 10.0 mi WNW 5.8 mph - N/A   Partly Cloudy
1:53 AM 45.0 °F 41.2 °F 35.1 °F 68% 29.98 in 10.0 mi WNW 6.9 mph - N/A   Partly Cloudy
2:53 AM 44.1 °F 40.1 °F 34.0 °F 68% 29.98 in 10.0 mi West 6.9 mph - N/A   Clear
3:53 AM 43.0 °F 38.2 °F 34.0 °F 71% 29.98 in 10.0 mi West 8.1 mph - N/A   Clear
4:53 AM 41.0 °F 38.0 °F 33.1 °F 73% 29.99 in 10.0 mi SW 4.6 mph - N/A   Clear
5:53 AM 41.0 °F 36.4 °F 32.0 °F 70% 30.00 in 10.0 mi West 6.9 mph - N/A   Clear
6:53 AM 41.0 °F 38.0 °F 33.1 °F 73% 30.01 in 10.0 mi SW 4.6 mph - N/A   Clear
7:53 AM 44.1 °F 38.1 °F 33.1 °F 65% 30.04 in 10.0 mi West 11.5 mph - N/A   Clear
8:53 AM 48.0 °F - 32.0 °F 54% 30.03 in 10.0 mi WNW 11.5 mph - N/A   Clear
9:53 AM 50.0 °F - 32.0 °F 50% 30.04 in 10.0 mi NW 11.5 mph - N/A   Clear
10:53 AM 51.1 °F - 30.9 °F 46% 30.05 in 10.0 mi WNW 13.8 mph 21.9 mph N/A   Clear
11:53 AM 53.1 °F - 32.0 °F 45% 30.03 in 10.0 mi West 15.0 mph 18.4 mph N/A   Clear
12:53 PM 54.0 °F - 30.0 °F 40% 30.01 in 10.0 mi WNW 10.4 mph 23.0 mph N/A   Clear
1:53 PM 55.9 °F - 28.9 °F 36% 29.99 in 10.0 mi West 11.5 mph 17.3 mph N/A   Clear
2:53 PM 55.0 °F - 30.0 °F 38% 29.99 in 10.0 mi WNW 12.7 mph - N/A   Clear
3:53 PM 53.1 °F - 30.9 °F 43% 29.99 in 10.0 mi West 11.5 mph - N/A   Clear
4:53 PM 52.0 °F - 30.9 °F 45% 30.01 in 10.0 mi West 11.5 mph 17.3 mph N/A   Clear
5:53 PM 48.9 °F - 30.9 °F 50% 30.02 in 10.0 mi NW 6.9 mph - N/A   Clear
6:53 PM 48.2 °F - 30.2 °F 50% 30.03 in 10.0 mi NNW 9.2 mph - N/A   Clear
7:53 PM 46.0 °F 41.0 °F 30.0 °F 54% 30.04 in 10.0 mi North 10.4 mph - N/A   Clear
8:53 PM 44.1 °F 40.1 °F 30.0 °F 58% 30.06 in 10.0 mi North 6.9 mph - N/A   Clear
9:53 PM 43.0 °F 37.2 °F 28.9 °F 58% 30.08 in 10.0 mi NNW 10.4 mph - N/A   Clear
10:53 PM 42.1 °F 37.1 °F 28.0 °F 58% 30.08 in 10.0 mi NNW 8.1 mph - N/A   Clear
11:53 PM 41.0 °F 35.8 °F 28.0 °F 60% 30.09 in 10.0 mi NW 8.1 mph - N/A   Clear